QPF
0.00 0.00 0.00 0.00 0.00 0.00 0.00 0.00 0.01 0.00 0.00 0.00 0.00 0.00 0.00 0.00 0.00 0.00 0.00 0.01 0.01 0.01 0.01 0.02 0.02 0.03 0.03 0.02 0.01 0.01 0.00 0.00 0.00 0.00 0.00 0.00 0.00 0.00 0.00 0.00 0.00 0.01 0.01
0.00 0.00 0.00 0.00 0.00 0.01 0.01 0.01 0.00 0.00 0.00 0.00 0.00 0.00 0.00 0.00 0.00 0.00 0.00 0.00 0.00 0.01 0.01 0.01 0.01 0.01 0.01 0.01 0.00 0.00 0.00 0.00 0.00 0.00 0.00 0.00 0.00 0.00 0.00 0.00 0.00 0.01 0.01
0.00 0.00 0.00 0.00 0.00 0.01 0.01 0.00 0.00 0.00 0.00 0.00 0.00 0.00 0.01 0.00 0.00 0.00 0.00 0.00 0.00 0.00 0.00 0.01 0.01 0.01 0.00 0.00 0.00 0.00 0.00 0.00 0.00 0.00 0.00 0.00 0.00 0.00 0.00 0.00 0.01 0.01 0.01
0.00 0.00 0.00 0.00 0.00 0.01 0.01 0.00 0.00 0.00 0.00 0.00 0.00 0.01 0.01 0.01 0.00 0.00 0.00 0.00 0.00 0.00 0.00 0.00 0.00 0.00 0.00 0.00 0.00 0.00 0.00 0.00 0.00 0.00 0.00 0.00 0.01 0.01 0.01 0.01 0.01 0.01 0.01
0.00 0.00 0.01 0.01 0.01 0.01 0.00 0.00 0.00 0.00 0.00 0.00 0.00 0.01 0.01 0.01 0.00 0.00 0.00 0.00 0.00 0.00 0.00 0.00 0.00 0.00 0.00 0.00 0.00 0.00 0.00 0.00 0.00 0.00 0.00 0.00 0.01 0.01 0.01 0.01 0.01 0.01 0.01
0.00 0.00 0.01 0.01 0.01 0.00 0.00 0.00 0.00 0.00 0.00 0.00 0.00 0.01 0.01 0.01 0.01 0.00 0.00 0.00 0.00 0.00 0.00 0.00 0.00 0.00 0.00 0.00 0.00 0.00 0.00 0.00 0.00 0.00 0.00 0.00 0.01 0.01 0.01 0.01 0.01 0.01 0.01
0.00 0.01 0.01 0.01 0.01 0.00 0.00 0.00 0.00 0.00 0.00 0.00 0.00 0.01 0.01 0.01 0.01 0.00 0.00 0.00 0.00 0.00 0.00 0.00 0.00 0.00 0.00 0.00 0.00 0.00 0.00 0.00 0.00 0.00 0.00 0.00 0.01 0.01 0.01 0.01 0.00 0.01 0.01
0.01 0.01 0.02 0.01 0.01 0.01 0.01 0.00 0.00 0.00 0.00 0.00 0.00 0.01 0.01 0.01 0.00 0.00 0.00 0.00 0.00 0.00 0.00 0.00 0.00 0.00 0.00 0.00 0.00 0.00 0.00 0.00 0.00 0.00 0.00 0.00 0.00 0.01 0.01 0.00 0.00 0.00 0.01
0.01 0.01 0.02 0.02 0.01 0.01 0.01 0.00 0.00 0.00 0.00 0.00 0.00 0.00 0.00 0.00 0.00 0.00 0.00 0.00 0.00 0.00 0.00 0.00 0.00 0.00 0.00 0.00 0.00 0.00 0.00 0.00 0.00 0.00 0.00 0.00 0.01 0.01 0.01 0.00 0.00 0.00 0.00
0.01 0.01 0.02 0.02 0.02 0.01 0.01 0.01 0.00 0.00 0.00 0.00 0.00 0.00 0.00 0.00 0.00 0.00 0.00 0.00 0.00 0.00 0.00 0.00 0.00 0.00 0.00 0.00 0.00 0.00 0.00 0.00 0.00 0.00 0.00 0.00 0.00 0.00 0.00 0.00 0.00 0.00 0.00
0.02 0.02 0.02 0.02 0.02 0.02 0.01 0.01 0.01 0.00 0.00 0.00 0.00 0.00 0.00 0.00 0.00 0.00 0.00 0.00 0.00 0.00 0.00 0.00 0.00 0.00 0.00 0.00 0.00 0.00 0.00 0.00 0.00 0.00 0.00 0.00 0.00 0.00 0.00 0.00 0.00 0.00 0.00
0.02 0.02 0.02 0.02 0.02 0.02 0.01 0.01 0.01 0.00 0.00 0.00 0.00 0.00 0.00 0.00 0.00 0.00 0.00 0.00 0.00 0.00 0.00 0.00 0.00 0.00 0.00 0.00 0.00 0.00 0.00 0.00 0.00 0.00 0.00 0.00 0.00 0.01 0.00 0.00 0.00 0.00 0.00
0.01 0.01 0.01 0.02 0.02 0.02 0.01 0.01 0.01 0.01 0.00 0.00 0.00 0.00 0.00 0.00 0.00 0.00 0.00 0.00 0.00 0.00 0.00 0.00 0.00 0.00 0.00 0.00 0.00 0.00 0.00 0.00 0.00 0.00 0.00 0.00 0.00 0.01 0.01 0.00 0.00 0.00 0.00
0.01 0.01 0.01 0.01 0.01 0.01 0.01 0.01 0.01 0.00 0.00 0.00 0.00 0.00 0.00 0.00 0.00 0.00 0.00 0.00 0.00 0.00 0.00 0.00 0.00 0.00 0.00 0.00 0.00 0.00 0.00 0.00 0.00 0.00 0.00 0.00 0.00 0.00 0.01 0.00 0.00 0.00 0.00
0.01 0.01 0.01 0.01 0.01 0.01 0.01 0.00 0.00 0.00 0.00 0.00 0.00 0.00 0.00 0.00 0.00 0.00 0.00 0.00 0.00 0.00 0.00 0.00 0.00 0.00 0.00 0.00 0.00 0.00 0.00 0.00 0.00 0.00 0.00 0.00 0.00 0.00 0.01 0.01 0.00 0.00 0.00
0.02 0.01 0.01 0.01 0.01 0.01 0.01 0.00 0.00 0.00 0.00 0.00 0.00 0.00 0.00 0.00 0.00 0.00 0.00 0.00 0.00 0.00 0.00 0.00 0.00 0.00 0.00 0.00 0.00 0.00 0.00 0.00 0.00 0.00 0.00 0.00 0.00 0.00 0.00 0.01 0.00 0.00 0.00
0.04 0.03 0.01 0.00 0.01 0.01 0.01 0.00 0.00 0.00 0.00 0.00 0.00 0.00 0.00 0.00 0.00 0.00 0.00 0.00 0.00 0.00 0.00 0.00 0.00 0.00 0.00 0.00 0.00 0.00 0.00 0.00 0.00 0.00 0.00 0.00 0.00 0.00 0.00 0.00 0.01 0.01 0.01
0.03 0.03 0.02 0.01 0.00 0.01 0.01 0.00 0.00 0.00 0.00 0.00 0.00 0.00 0.00 0.00 0.00 0.00 0.00 0.00 0.00 0.00 0.00 0.00 0.00 0.00 0.00 0.00 0.00 0.00 0.00 0.00 0.00 0.00 0.00 0.00 0.00 0.00 0.00 0.00 0.01 0.01 0.01
0.04 0.03 0.02 0.01 0.01 0.01 0.01 0.00 0.00 0.00 0.00 0.00 0.00 0.00 0.00 0.00 0.00 0.00 0.00 0.00 0.00 0.00 0.00 0.00 0.00 0.00 0.00 0.00 0.00 0.00 0.00 0.00 0.00 0.00 0.00 0.00 0.00 0.00 0.00 0.00 0.00 0.01 0.01
0.03 0.03 0.03 0.02 0.02 0.02 0.01 0.01 0.00 0.00 0.00 0.00 0.00 0.00 0.00 0.00 0.00 0.00 0.00 0.00 0.00 0.00 0.00 0.00 0.00 0.00 0.00 0.00 0.00 0.00 0.00 0.00 0.00 0.00 0.00 0.00 0.00 0.01 0.01 0.01 0.00 0.00 0.01
0.01 0.01 0.02 0.02 0.02 0.02 0.01 0.01 0.00 0.00 0.00 0.00 0.00 0.00 0.00 0.00 0.00 0.00 0.00 0.00 0.00 0.00 0.00 0.00 0.01 0.01 0.01 0.00 0.01 0.01 0.00 0.00 0.00 0.00 0.00 0.00 0.00 0.01 0.01 0.01 0.01 0.00 0.00
0.00 0.01 0.01 0.01 0.01 0.01 0.01 0.01 0.01 0.00 0.00 0.00 0.00 0.00 0.00 0.00 0.00 0.00 0.00 0.00 0.00 0.01 0.01 0.01 0.01 0.01 0.01 0.01 0.01 0.02 0.01 0.00 0.00 0.00 0.00 0.00 0.00 0.00 0.00 0.00 0.01 0.01 0.01
0.00 0.00 0.01 0.01 0.01 0.01 0.01 0.01 0.01 0.00 0.00 0.00 0.00 0.00 0.00 0.00 0.00 0.00 0.00 0.00 0.00 0.01 0.01 0.01 0.01 0.01 0.02 0.01 0.01 0.02 0.03 0.02 0.01 0.00 0.00 0.00 0.00 0.00 0.00 0.00 0.00 0.00 0.01
0.00 0.00 0.00 0.00 0.00 0.01 0.01 0.01 0.01 0.01 0.00 0.00 0.00 0.00 0.00 0.00 0.00 0.00 0.00 0.00 0.00 0.01 0.01 0.01 0.01 0.01 0.01 0.01 0.01 0.01 0.02 0.02 0.02 0.02 0.00 0.00 0.00 0.00 0.00 0.00 0.00 0.00 0.00
0.00 0.00 0.00 0.00 0.00 0.00 0.00 0.01 0.01 0.00 0.00 0.00 0.00 0.00 0.00 0.00 0.00 0.00 0.00 0.00 0.01 0.01 0.01 0.01 0.01 0.01 0.01 0.01 0.01 0.01 0.01 0.01 0.01 0.02 0.01 0.01 0.00 0.00 0.00 0.00 0.00 0.00 0.01
0.00 0.00 0.00 0.00 0.00 0.00 0.00 0.00 0.00 0.00 0.00 0.00 0.00 0.00 0.00 0.00 0.00 0.00 0.00 0.00 0.00 0.00 0.00 0.00 0.00 0.01 0.01 0.01 0.01 0.02 0.02 0.02 0.01 0.01 0.02 0.01 0.01 0.01 0.00 0.00 0.00 0.00 0.01
MSLP
1015.84 1015.99 1016.25 1016.63 1017.09 1017.56 1017.98 1018.29 1018.48 1018.55 1018.53 1018.49 1018.47 1018.51 1018.62 1018.78 1018.96 1019.11 1019.19 1019.21 1019.17 1019.09 1019.03 1019.00 1019.04 1019.14 1019.29 1019.45 1019.60 1019.70 1019.75 1019.75 1019.72 1019.67 1019.63 1019.61 1019.59 1019.57 1019.54 1019.49 1019.42 1019.33 1019.23
1015.62 1015.82 1016.14 1016.59 1017.11 1017.64 1018.10 1018.45 1018.67 1018.75 1018.74 1018.71 1018.70 1018.76 1018.89 1019.08 1019.29 1019.47 1019.59 1019.63 1019.61 1019.56 1019.51 1019.50 1019.55 1019.66 1019.81 1019.95 1020.06 1020.12 1020.12 1020.07 1020.00 1019.93 1019.88 1019.85 1019.85 1019.85 1019.83 1019.79 1019.71 1019.59 1019.47
1015.46 1015.70 1016.07 1016.57 1017.14 1017.72 1018.23 1018.61 1018.85 1018.96 1018.97 1018.96 1018.97 1019.05 1019.21 1019.41 1019.63 1019.82 1019.95 1019.99 1019.98 1019.94 1019.91 1019.92 1019.99 1020.11 1020.25 1020.38 1020.46 1020.48 1020.43 1020.34 1020.22 1020.13 1020.07 1020.05 1020.06 1020.08 1020.09 1020.05 1019.97 1019.85 1019.71
1015.39 1015.67 1016.08 1016.61 1017.22 1017.82 1018.35 1018.77 1019.03 1019.17 1019.22 1019.23 1019.27 1019.37 1019.54 1019.75 1019.97 1020.15 1020.26 1020.29 1020.28 1020.24 1020.23 1020.26 1020.35 1020.48 1020.63 1020.75 1020.81 1020.79 1020.70 1020.56 1020.41 1020.29 1020.23 1020.22 1020.25 1020.30 1020.33 1020.31 1020.24 1020.12 1019.97
1015.45 1015.75 1016.18 1016.73 1017.34 1017.95 1018.50 1018.92 1019.21 1019.37 1019.44 1019.49 1019.56 1019.68 1019.86 1020.07 1020.28 1020.44 1020.53 1020.56 1020.54 1020.51 1020.50 1020.55 1020.66 1020.81 1020.96 1021.08 1021.12 1021.07 1020.94 1020.77 1020.59 1020.46 1020.39 1020.39 1020.44 1020.51 1020.57 1020.58 1020.53 1020.41 1020.26
1015.63 1015.93 1016.36 1016.91 1017.51 1018.11 1018.65 1019.07 1019.35 1019.53 1019.63 1019.71 1019.81 1019.95 1020.15 1020.36 1020.56 1020.71 1020.80 1020.81 1020.79 1020.76 1020.77 1020.84 1020.97 1021.13 1021.29 1021.39 1021.42 1021.34 1021.19 1020.99 1020.79 1020.64 1020.57 1020.58 1020.65 1020.75 1020.83 1020.86 1020.83 1020.73 1020.58
1015.92 1016.20 1016.61 1017.13 1017.71 1018.28 1018.79 1019.19 1019.47 1019.65 1019.77 1019.87 1019.99 1020.17 1020.38 1020.61 1020.82 1020.97 1021.06 1021.07 1021.06 1021.04 1021.07 1021.15 1021.29 1021.45 1021.61 1021.71 1021.71 1021.62 1021.44 1021.22 1021.01 1020.85 1020.78 1020.80 1020.88 1021.00 1021.11 1021.16 1021.14 1021.06 1020.92
1016.28 1016.53 1016.90 1017.38 1017.91 1018.44 1018.91 1019.28 1019.55 1019.72 1019.85 1019.97 1020.12 1020.32 1020.55 1020.81 1021.03 1021.21 1021.31 1021.35 1021.35 1021.35 1021.39 1021.48 1021.62 1021.78 1021.92 1022.00 1021.99 1021.88 1021.69 1021.46 1021.24 1021.08 1021.01 1021.04 1021.14 1021.27 1021.39 1021.46 1021.46 1021.38 1021.25
1016.67 1016.88 1017.20 1017.63 1018.11 1018.59 1019.01 1019.35 1019.59 1019.76 1019.89 1020.02 1020.19 1020.41 1020.68 1020.95 1021.21 1021.41 1021.54 1021.61 1021.63 1021.65 1021.70 1021.79 1021.92 1022.06 1022.19 1022.25 1022.22 1022.10 1021.90 1021.67 1021.45 1021.30 1021.24 1021.28 1021.38 1021.53 1021.66 1021.74 1021.75 1021.69 1021.57
1017.05 1017.21 1017.48 1017.86 1018.29 1018.72 1019.10 1019.41 1019.63 1019.79 1019.91 1020.05 1020.23 1020.47 1020.75 1021.06 1021.34 1021.56 1021.72 1021.82 1021.86 1021.90 1021.95 1022.03 1022.14 1022.27 1022.36 1022.40 1022.36 1022.23 1022.04 1021.82 1021.61 1021.48 1021.43 1021.48 1021.59 1021.74 1021.88 1021.98 1022.00 1021.95 1021.85
1017.39 1017.50 1017.73 1018.06 1018.45 1018.83 1019.18 1019.46 1019.66 1019.81 1019.94 1020.08 1020.26 1020.51 1020.79 1021.10 1021.40 1021.64 1021.82 1021.93 1022.00 1022.04 1022.09 1022.16 1022.25 1022.34 1022.42 1022.43 1022.38 1022.26 1022.08 1021.88 1021.70 1021.59 1021.55 1021.61 1021.73 1021.89 1022.03 1022.14 1022.17 1022.15 1022.06
1017.65 1017.74 1017.93 1018.22 1018.57 1018.92 1019.25 1019.51 1019.70 1019.85 1019.97 1020.11 1020.29 1020.52 1020.80 1021.10 1021.39 1021.63 1021.82 1021.94 1022.01 1022.05 1022.09 1022.14 1022.21 1022.28 1022.33 1022.33 1022.28 1022.16 1022.01 1021.83 1021.69 1021.60 1021.59 1021.65 1021.78 1021.94 1022.09 1022.20 1022.26 1022.26 1022.20
1017.82 1017.89 1018.07 1018.33 1018.65 1018.98 1019.29 1019.54 1019.74 1019.88 1020.01 1020.14 1020.31 1020.52 1020.77 1021.04 1021.30 1021.53 1021.70 1021.82 1021.88 1021.92 1021.95 1021.99 1022.03 1022.08 1022.11 1022.11 1022.06 1021.97 1021.84 1021.70 1021.58 1021.51 1021.51 1021.58 1021.71 1021.87 1022.02 1022.15 1022.23 1022.26 1022.25
1017.89 1017.97 1018.13 1018.38 1018.67 1018.99 1019.28 1019.54 1019.74 1019.90 1020.03 1020.15 1020.30 1020.49 1020.70 1020.93 1021.15 1021.35 1021.50 1021.60 1021.65 1021.68 1021.70 1021.73 1021.76 1021.79 1021.82 1021.82 1021.78 1021.70 1021.59 1021.48 1021.38 1021.33 1021.34 1021.41 1021.53 1021.68 1021.83 1021.97 1022.07 1022.14 1022.17
1017.87 1017.96 1018.12 1018.35 1018.62 1018.92 1019.21 1019.47 1019.68 1019.86 1020.00 1020.13 1020.26 1020.42 1020.59 1020.78 1020.95 1021.11 1021.23 1021.31 1021.36 1021.38 1021.40 1021.42 1021.45 1021.47 1021.50 1021.50 1021.46 1021.40 1021.31 1021.22 1021.13 1021.08 1021.08 1021.14 1021.24 1021.38 1021.53 1021.67 1021.79 1021.89 1021.97
1017.76 1017.87 1018.03 1018.23 1018.49 1018.76 1019.05 1019.31 1019.54 1019.74 1019.90 1020.03 1020.17 1020.30 1020.44 1020.59 1020.72 1020.84 1020.94 1021.01 1021.05 1021.08 1021.10 1021.12 1021.15 1021.18 1021.20 1021.21 1021.18 1021.12 1021.04 1020.94 1020.85 1020.79 1020.77 1020.80 1020.88 1020.99 1021.12 1021.26 1021.39 1021.52 1021.63
1017.59 1017.72 1017.87 1018.06 1018.28 1018.53 1018.80 1019.06 1019.31 1019.52 1019.71 1019.87 1020.00 1020.13 1020.25 1020.36 1020.47 1020.57 1020.65 1020.71 1020.76 1020.80 1020.84 1020.88 1020.92 1020.95 1020.98 1020.97 1020.94 1020.88 1020.79 1020.68 1020.58 1020.49 1020.44 1020.43 1020.47 1020.54 1020.65 1020.78 1020.91 1021.04 1021.18
1017.41 1017.55 1017.68 1017.84 1018.02 1018.24 1018.49 1018.75 1019.00 1019.24 1019.45 1019.63 1019.77 1019.90 1020.01 1020.12 1020.21 1020.30 1020.38 1020.45 1020.52 1020.58 1020.63 1020.69 1020.74 1020.78 1020.81 1020.80 1020.76 1020.68 1020.57 1020.45 1020.31 1020.19 1020.10 1020.05 1020.05 1020.09 1020.16 1020.26 1020.39 1020.52 1020.66
1017.25 1017.39 1017.50 1017.62 1017.76 1017.95 1018.17 1018.41 1018.67 1018.92 1019.15 1019.34 1019.51 1019.64 1019.76 1019.86 1019.95 1020.04 1020.13 1020.22 1020.30 1020.38 1020.46 1020.54 1020.60 1020.65 1020.67 1020.66 1020.60 1020.51 1020.38 1020.23 1020.07 1019.92 1019.79 1019.70 1019.66 1019.66 1019.70 1019.77 1019.87 1019.98 1020.11
1017.11 1017.25 1017.35 1017.43 1017.54 1017.69 1017.88 1018.11 1018.36 1018.61 1018.85 1019.06 1019.23 1019.38 1019.50 1019.60 1019.70 1019.79 1019.89 1019.99 1020.09 1020.19 1020.29 1020.38 1020.45 1020.50 1020.51 1020.50 1020.43 1020.33 1020.19 1020.03 1019.85 1019.67 1019.51 1019.39 1019.31 1019.28 1019.29 1019.34 1019.41 1019.50 1019.60
1017.02 1017.16 1017.25 1017.32 1017.40 1017.52 1017.68 1017.89 1018.12 1018.37 1018.60 1018.81 1018.99 1019.13 1019.26 1019.36 1019.46 1019.56 1019.66 1019.77 1019.88 1019.98 1020.08 1020.17 1020.24 1020.29 1020.30 1020.28 1020.22 1020.11 1019.98 1019.81 1019.63 1019.44 1019.27 1019.14 1019.04 1018.99 1018.97 1019.00 1019.04 1019.11 1019.18
1016.96 1017.12 1017.21 1017.28 1017.35 1017.45 1017.60 1017.78 1018.00 1018.22 1018.44 1018.64 1018.81 1018.95 1019.07 1019.17 1019.26 1019.35 1019.45 1019.55 1019.64 1019.74 1019.82 1019.89 1019.95 1019.99 1020.00 1019.98 1019.92 1019.84 1019.72 1019.57 1019.40 1019.23 1019.07 1018.94 1018.83 1018.77 1018.75 1018.76 1018.79 1018.84 1018.89
1016.90 1017.09 1017.22 1017.31 1017.39 1017.50 1017.63 1017.80 1017.99 1018.20 1018.39 1018.57 1018.72 1018.85 1018.95 1019.04 1019.12 1019.20 1019.27 1019.34 1019.41 1019.47 1019.51 1019.55 1019.58 1019.60 1019.60 1019.59 1019.56 1019.50 1019.42 1019.31 1019.18 1019.03 1018.90 1018.78 1018.69 1018.63 1018.61 1018.62 1018.65 1018.69 1018.73
1016.82 1017.07 1017.25 1017.39 1017.51 1017.63 1017.77 1017.93 1018.10 1018.28 1018.44 1018.60 1018.73 1018.83 1018.92 1019.00 1019.06 1019.12 1019.16 1019.19 1019.20 1019.20 1019.20 1019.18 1019.17 1019.16 1019.15 1019.15 1019.15 1019.13 1019.09 1019.03 1018.95 1018.86 1018.76 1018.66 1018.59 1018.55 1018.54 1018.56 1018.60 1018.65 1018.70
1016.72 1017.03 1017.28 1017.48 1017.65 1017.81 1017.96 1018.12 1018.28 1018.43 1018.57 1018.70 1018.82 1018.91 1018.99 1019.06 1019.11 1019.13 1019.14 1019.12 1019.07 1019.00 1018.93 1018.85 1018.78 1018.73 1018.71 1018.72 1018.74 1018.77 1018.79 1018.79 1018.76 1018.71 1018.65 1018.59 1018.54 1018.51 1018.52 1018.56 1018.62 1018.69 1018.76
1016.61 1016.99 1017.31 1017.57 1017.80 1017.99 1018.17 1018.33 1018.48 1018.62 1018.75 1018.86 1018.97 1019.06 1019.14 1019.20 1019.24 1019.26 1019.23 1019.16 1019.05 1018.91 1018.76 1018.61 1018.48 1018.39 1018.35 1018.36 1018.40 1018.47 1018.54 1018.60 1018.63 1018.63 1018.60 1018.56 1018.53 1018.52 1018.54 1018.60 1018.69 1018.79 1018.88
Thickness
5764 5762 5755 5752 5750 5749 5748 5747 5746 5745 5744 5743 5742 5742 5741 5740 5740 5739 5739 5739 5739 5739 5739 5738 5736 5734 5732 5730 5727 5726 5724 5722 5721 5719 5717 5716 5715 5714 5712 5711 5712 5711 5707
5766 5760 5753 5751 5748 5747 5745 5744 5743 5742 5741 5740 5740 5739 5738 5738 5737 5736 5735 5735 5735 5735 5734 5733 5731 5729 5727 5725 5723 5721 5720 5718 5716 5715 5714 5713 5711 5710 5708 5707 5706 5705 5703
5763 5758 5751 5748 5746 5744 5743 5741 5740 5739 5738 5738 5737 5736 5735 5735 5734 5733 5732 5731 5731 5730 5730 5728 5726 5724 5722 5720 5719 5717 5715 5714 5712 5712 5712 5712 5709 5706 5704 5703 5702 5701 5699
5759 5755 5751 5746 5743 5742 5740 5738 5737 5736 5735 5735 5734 5734 5733 5732 5731 5729 5728 5727 5727 5726 5725 5723 5721 5719 5718 5716 5715 5713 5711 5710 5709 5709 5711 5709 5706 5702 5700 5699 5698 5697 5695
5755 5751 5747 5743 5741 5739 5737 5736 5734 5733 5732 5732 5731 5731 5730 5729 5727 5726 5725 5723 5722 5721 5720 5718 5716 5715 5713 5712 5711 5709 5707 5706 5706 5707 5706 5704 5702 5698 5696 5695 5694 5692 5691
5751 5748 5743 5740 5737 5736 5734 5733 5731 5730 5730 5729 5728 5728 5727 5725 5724 5722 5721 5719 5718 5717 5716 5714 5712 5711 5709 5708 5707 5705 5704 5703 5704 5704 5702 5700 5698 5694 5692 5690 5689 5688 5686
5746 5743 5740 5736 5734 5733 5731 5730 5729 5728 5727 5726 5725 5724 5724 5722 5720 5718 5717 5715 5714 5713 5712 5710 5708 5707 5705 5704 5703 5701 5700 5699 5701 5699 5698 5696 5692 5689 5687 5686 5684 5683 5681
5740 5739 5736 5732 5731 5729 5728 5727 5726 5725 5724 5722 5721 5721 5720 5718 5716 5715 5713 5712 5711 5709 5708 5706 5705 5703 5702 5700 5699 5697 5696 5695 5696 5695 5693 5691 5687 5685 5683 5681 5679 5678 5676
5734 5734 5733 5730 5727 5725 5725 5724 5723 5722 5720 5719 5718 5717 5716 5714 5713 5711 5709 5708 5707 5705 5704 5702 5701 5699 5698 5696 5695 5694 5692 5692 5694 5691 5689 5687 5682 5680 5678 5676 5674 5672 5671
5728 5729 5729 5728 5726 5724 5721 5720 5719 5718 5717 5716 5714 5713 5712 5711 5709 5708 5706 5704 5703 5702 5700 5698 5697 5695 5694 5693 5691 5690 5689 5688 5690 5688 5686 5682 5678 5676 5674 5671 5669 5667 5666
5721 5723 5724 5724 5723 5721 5720 5716 5715 5714 5713 5712 5711 5709 5708 5709 5708 5705 5703 5701 5700 5698 5697 5695 5694 5692 5691 5689 5688 5687 5686 5687 5687 5684 5682 5677 5674 5672 5669 5667 5665 5662 5660
5714 5716 5718 5718 5718 5717 5716 5714 5713 5712 5710 5711 5710 5707 5707 5706 5705 5703 5699 5698 5697 5695 5694 5692 5691 5689 5689 5688 5686 5684 5685 5683 5683 5681 5678 5674 5671 5668 5666 5663 5660 5658 5655
5710 5711 5712 5713 5713 5713 5712 5711 5710 5710 5709 5708 5707 5705 5704 5703 5701 5700 5699 5697 5695 5693 5694 5691 5690 5689 5688 5686 5684 5683 5681 5680 5680 5678 5675 5671 5667 5665 5662 5659 5656 5653 5651
5704 5705 5707 5707 5708 5708 5708 5707 5707 5706 5706 5705 5704 5702 5701 5700 5698 5698 5697 5695 5694 5693 5691 5690 5689 5688 5685 5684 5682 5681 5679 5677 5676 5674 5672 5668 5664 5661 5659 5656 5653 5649 5646
5698 5700 5702 5702 5703 5703 5703 5703 5703 5702 5702 5702 5700 5699 5698 5697 5696 5695 5694 5692 5691 5690 5689 5687 5687 5686 5684 5682 5680 5678 5676 5675 5673 5671 5669 5665 5661 5658 5655 5652 5649 5646 5642
5693 5695 5697 5697 5698 5698 5699 5699 5699 5699 5698 5698 5697 5696 5694 5694 5693 5692 5691 5689 5689 5687 5686 5685 5684 5682 5681 5679 5678 5676 5674 5672 5670 5668 5665 5663 5659 5655 5652 5649 5646 5642 5639
5690 5692 5693 5693 5693 5694 5695 5695 5695 5694 5694 5694 5693 5692 5691 5690 5689 5688 5688 5687 5686 5685 5683 5682 5681 5679 5677 5676 5675 5674 5672 5670 5668 5665 5662 5659 5657 5653 5649 5645 5642 5639 5635
5687 5688 5689 5689 5689 5690 5690 5690 5690 5691 5690 5690 5690 5689 5688 5687 5686 5685 5684 5683 5683 5682 5680 5679 5677 5676 5675 5673 5673 5672 5669 5667 5664 5662 5659 5656 5653 5650 5647 5642 5638 5635 5632
5681 5683 5684 5685 5685 5686 5685 5685 5686 5686 5685 5686 5686 5685 5685 5684 5683 5681 5681 5680 5679 5678 5677 5675 5673 5672 5671 5670 5669 5667 5665 5663 5661 5658 5655 5653 5649 5646 5642 5640 5635 5631 5627
5674 5677 5679 5679 5680 5680 5680 5680 5680 5680 5680 5680 5680 5680 5680 5680 5678 5678 5677 5676 5675 5674 5673 5671 5669 5667 5665 5664 5662 5661 5661 5660 5657 5655 5652 5649 5645 5641 5637 5634 5630 5628 5623
5666 5669 5671 5672 5673 5674 5674 5674 5673 5674 5675 5675 5675 5675 5675 5674 5673 5673 5672 5671 5670 5669 5669 5667 5665 5663 5660 5658 5654 5655 5658 5658 5656 5653 5649 5645 5642 5637 5632 5628 5625 5622 5620
5658 5660 5663 5665 5667 5667 5668 5668 5668 5668 5669 5669 5668 5667 5667 5667 5667 5666 5667 5666 5665 5664 5663 5662 5660 5657 5655 5652 5649 5647 5648 5653 5654 5649 5644 5639 5635 5631 5626 5622 5618 5615 5612
5649 5652 5654 5656 5658 5658 5659 5659 5659 5659 5660 5660 5660 5660 5659 5659 5659 5659 5659 5659 5658 5658 5657 5656 5655 5652 5650 5649 5645 5640 5638 5642 5645 5644 5638 5632 5627 5623 5620 5615 5611 5608 5605
5640 5642 5644 5646 5648 5649 5650 5652 5653 5653 5654 5654 5652 5651 5651 5650 5650 5651 5651 5651 5651 5650 5650 5650 5648 5646 5644 5643 5641 5637 5634 5632 5627 5630 5630 5626 5620 5615 5612 5607 5603 5600 5597
5631 5632 5634 5635 5637 5638 5640 5642 5643 5644 5644 5643 5642 5642 5642 5642 5641 5641 5641 5642 5642 5642 5642 5641 5640 5639 5637 5636 5634 5631 5627 5624 5619 5615 5616 5616 5613 5609 5604 5599 5596 5592 5588
5621 5621 5623 5625 5626 5627 5628 5630 5632 5633 5633 5633 5633 5633 5633 5633 5632 5632 5631 5632 5632 5632 5632 5632 5631 5630 5629 5628 5626 5624 5620 5617 5614 5609 5607 5605 5602 5600 5596 5591 5586 5582 5577